Location: *
(17.3280°S, 114.7300°W)
Time: 15:43:52
(UTC+00:00)

Hubble Space Telescope - Pass Details

Date: 28 October 2020
Orbit: 536 x 540 km, 28.5° (Epoch: 29 November)

Event Time Altitude Azimuth Distance (km) Brightness Sun altitude
Exits shadow 10:17:07 10° 135° (SE) 1,782 4.1 -37.1°
Drops below altitude 10° 10:17:12 10° 134° (SE) 1,800 4.1 -37.1°
Sets 10:20:05 0° 114° (ESE) 2,691 5.3 -36.5°
